Location: Trento
(46.0670°N, 11.1330°E)
Time: 22:47:25
(UTC+01:00)

ISS - Visible Passes

Search period start: 18 January 2019 00:00
Search period end: 28 January 2019 00:00
Orbit: 404 x 410 km, 51.6° (Epoch: 18 January)

Date Brightness Start Highest point End Pass type
(mag) Time Alt. Az. Time Alt. Az. Time Alt. Az.
21 Jan -1.4 18:45:18 10° SSE 18:46:01 12° SSE 18:46:01 12° SSE visible
22 Jan -1.5 19:28:37 10° SW 19:29:52 21° SW 19:29:52 21° SW visible
23 Jan -2.7 18:37:37 10° SSW 18:40:32 29° SE 18:40:53 29° SE visible
24 Jan -1.9 17:47:01 10° S 17:49:18 18° SE 17:51:36 10° E visible
24 Jan -2.6 19:22:12 10° WSW 19:24:32 43° WSW 19:24:32 43° WSW visible
25 Jan -3.7 18:30:50 10° SW 18:34:05 64° SSE 18:35:23 33° ENE visible
25 Jan -0.4 20:07:41 10° W 20:08:06 13° W 20:08:06 13° W visible
26 Jan -2.9 17:39:40 10° SSW 17:42:45 37° SE 17:45:50 10° ENE visible
26 Jan -2.9 19:16:03 10° W 19:18:52 44° NW 19:18:52 44° NW visible
27 Jan -3.6 18:24:28 10° WSW 18:27:45 66° NNW 18:29:36 23° NE visible
27 Jan -0.6 20:01:41 10° WNW 20:02:19 14° WNW 20:02:19 14° WNW visible
